STARLINK-1591, 46045

Orbit data source: Space-Track

STARLINK-1591, 46045 is a payload satellite owned by SpaceX/Seattle (US) in LEO that was launched on Fri, 07 Aug 2020 UTC via an FALCON 9 launch vehicle from the Air Force Eastern Test Range (AFETR). Payload-class satellites include a variety of spacecraft equipped with specific instruments for various scientific and technological missions. These include communications satellites like Starlink; space stations such as the ISS; scientific satellites like the Hubble; Earth observation satellites from companies like Planet Labs, Umbra, and HawkEye 360; GPS; miniature CubeSats for education and research; and military/defense satellites.

Loading next visibility...
Identifier
46045, 2020-055U
Orbit
LEO
Country
Flag of USUS
Related business
Manufacturer
SpaceX/Seattle
Mission
Operational Commercial Communications
Bus & Motor
STARLINK, Unknown motor
Mass
260 kg wet, ~248 kg dry
Launch date (UTC)
2020-08-07 (5 years ago)
Launch vehicle
FALCON 9
Launch site
Air Force Eastern Test Range (AFETR)
Object type
Payload
Rocket body
Debris
Shape & HBR
Box + 1 Pan, 4.4 m
Radar Cross Section
13.562 m², Large (>1 m²)

Expand to show TLE details & history
Last TLE update: 7 hours ago

TLE from 7 hours ago
0 STARLINK-1591
1 46045U 20055U   25260.95050410 -.00000590  00000-0 -20707-4 0  9996
2 46045  53.0547 182.0707 0001329  82.5237 277.5903 15.06403625282830
Epoch: 2025-09-17T22:48Z
TLE epoch observation values (Epoch: 2025-09-17T22:48:43.554Z)
Latitude
-0.00001°
Longitude
-157.22988°
Altitude
547.958 km
Speed
7.589 km/s
True Right ascension
12h 08m 16s
True Declination
0° 00' 00"
Sunlit
Object was in daylight at epoch
Visualization orbit readout
Latitude
Unknown
Longitude
Unknown
Altitude
Unknown
Speed
Unknown
Apparent Right ascension
Unknown
Apparent Declination
Unknown
Sunlit
N/A
Visualization observer readout
Local Sidereal Time
22:52:30
Azimuth
Unknown
Elevation
Unknown
Doppler factor
Unknown
Orbital elements
Apogee altitude
548.392 km
Perigee altitude
546.551 km
Semi-major axis
6,925.608 km
Eccentricity
0.00013
Inclination
53.0547°
RAAN
182.0707°
Arg. of periapsis
82.5237°
True anomaly
277.5752°
Mean anomaly
277.5903°
Eccentric anomaly
277.58275°
Mean motion
3.76579 °/min
Orbital period
95.6 mins
BSTAR
-0.000020707
Loading maneuver chart data...
Computing Atmospheric mass density...
Loading historical data...
Loading historical data...
Loading historical data...
Loading historical data...
Loading historical data...
Loading historical data...
Loading historical data...

Documentation

Showing up to 5 results
|